Temp
24 24 24 23 24 24 24 24 24 24 24 24 24 24 24 24 24 24 24 24 25 25 25 25 23 22 22 22 22 22 22 22 22 21 22 22 21 21 21 21 21 21 21 21 21 21 21 21 21 21 21 21 21 21 21 20 20 20 20 20 20 19 19 19 19 19 19 19 19 19 19 18 18 18
24 24 24 24 23 24 23 23 24 24 23 23 24 24 24 24 24 24 24 24 25 24 25 25 24 22 22 22 22 22 22 21 21 21 22 21 21 21 21 21 21 21 21 21 21 21 21 21 21 21 21 21 20 20 20 20 20 20 20 19 19 19 19 19 19 19 19 19 19 19 19 19 19 18
24 24 24 24 23 23 23 23 24 23 23 23 24 24 24 24 24 24 24 24 24 24 24 25 24 23 22 22 22 22 22 21 21 21 21 21 21 21 21 21 21 21 21 21 21 21 21 21 21 21 21 20 20 20 20 20 20 19 19 19 19 19 19 19 19 19 19 19 19 19 19 19 19 19
24 24 24 23 23 23 23 23 23 23 23 23 23 23 23 23 23 23 24 24 24 24 24 24 24 23 22 22 22 22 22 21 21 21 21 21 21 21 21 21 21 21 21 21 21 21 21 20 20 20 20 20 20 20 20 19 19 19 19 19 19 19 19 19 19 18 18 18 18 18 18 19 19 19
24 23 23 23 23 23 23 23 23 23 23 23 23 23 23 23 23 23 23 24 24 24 23 23 23 23 22 22 22 22 22 21 21 21 21 20 21 21 21 21 21 21 21 21 20 20 20 20 20 20 20 19 19 19 19 19 19 19 19 19 19 19 19 19 18 18 18 18 18 18 18 18 18 18
23 23 23 23 23 23 23 23 23 23 23 23 23 23 23 23 23 23 23 23 24 24 23 23 23 22 22 22 22 21 22 22 21 21 20 20 20 21 21 21 21 20 20 20 20 20 20 20 20 20 19 19 19 19 19 19 19 19 19 19 19 19 18 18 18 18 18 18 18 18 18 18 18 18
23 23 23 23 23 23 23 23 23 23 23 23 23 23 23 23 23 23 23 23 23 24 23 23 23 23 22 22 22 21 21 21 21 20 20 20 20 21 21 21 21 21 20 20 20 20 20 19 19 19 19 19 19 19 19 19 19 18 18 18 18 18 18 18 18 18 18 18 18 18 18 18 18 18
23 23 23 24 24 23 23 23 23 23 23 23 23 23 23 23 23 23 22 22 23 23 23 23 23 23 22 22 22 21 21 21 20 20 20 20 21 21 21 21 21 20 20 20 20 20 19 19 19 19 19 19 19 18 18 18 18 18 18 18 18 18 18 18 18 18 18 18 18 18 18 18 18 18
24 24 23 24 24 23 23 23 23 23 23 23 23 23 23 23 23 23 22 22 22 22 23 23 23 22 22 22 22 21 21 21 21 20 20 20 21 21 21 21 21 20 20 20 19 19 19 19 19 19 19 19 18 18 18 18 18 18 17 17 17 17 17 17 17 17 17 17 17 17 17 17 18 18
24 24 24 24 24 23 23 23 23 23 23 23 23 23 23 23 22 23 22 22 22 22 22 23 23 22 22 22 22 21 21 21 21 21 21 21 20 20 20 21 21 21 20 20 19 19 19 19 18 18 18 18 18 18 18 18 18 17 17 17 17 17 17 17 17 17 17 17 17 17 17 17 17 17
24 24 24 24 24 23 23 23 23 23 23 23 23 23 23 22 22 22 22 22 22 22 22 23 23 23 22 22 22 21 21 21 21 21 21 21 21 20 20 20 20 21 20 20 20 20 19 19 19 18 18 18 18 18 18 17 17 17 17 17 17 17 16 16 16 16 16 16 16 16 16 16 16 16
24 24 24 24 24 23 23 23 23 23 23 23 23 22 22 22 22 22 22 22 22 22 22 23 23 23 22 22 22 21 21 21 21 21 21 22 21 21 20 20 20 20 20 20 21 20 19 19 19 19 18 18 18 17 17 17 17 17 16 16 16 16 16 16 16 16 16 16 16 16 16 16 16 16
24 24 24 25 25 24 23 23 23 23 23 23 23 22 22 22 22 22 22 22 22 22 23 23 23 23 23 22 22 22 21 21 22 21 21 21 21 21 21 20 20 19 19 20 20 20 19 19 19 19 19 18 18 18 18 18 17 16 16 16 16 15 15 15 15 15 15 16 16 16 16 16 16 16
24 24 25 25 25 24 23 23 23 23 23 23 23 22 22 22 22 22 22 22 22 23 23 23 23 23 23 23 22 22 22 22 21 21 21 21 21 21 21 21 20 19 19 19 19 19 19 19 19 19 19 18 18 18 18 18 17 16 16 16 16 15 15 15 15 15 15 16 16 16 16 16 16 16
24 24 24 24 24 24 23 23 23 23 23 23 23 22 22 22 22 22 22 22 22 23 23 23 23 23 23 23 23 22 22 22 21 21 21 21 21 21 21 21 21 19 18 18 18 18 18 18 18 18 18 18 18 18 18 17 17 16 16 16 15 15 15 16 16 16 16 16 16 16 16 16 16 16
24 24 24 24 24 23 23 23 23 23 23 23 22 22 22 21 22 22 22 22 22 22 23 23 23 23 23 23 23 22 22 22 21 21 20 20 20 21 21 21 21 19 18 18 18 18 19 18 18 18 18 18 18 18 17 17 16 16 15 15 15 15 15 15 15 15 15 15 15 15 15 15 15 15
24 24 24 24 24 23 23 23 22 22 23 22 22 22 22 21 21 21 21 22 22 22 22 23 23 23 23 23 22 22 22 22 21 21 21 20 20 20 20 20 20 19 18 18 18 18 19 19 19 19 19 19 18 18 17 16 16 15 15 15 15 15 15 15 15 15 15 15 15 15 15 15 15 15
24 24 24 24 24 23 23 23 22 22 22 22 22 21 21 21 21 21 21 21 21 21 22 22 22 22 22 22 22 21 20 20 21 21 21 21 20 20 19 19 18 18 18 18 18 18 19 19 19 19 19 19 18 18 17 16 16 15 15 15 15 15 15 15 15 15 15 15 15 15 15 15 15 15
24 24 24 24 23 23 23 23 22 22 21 21 21 21 20 20 21 21 21 21 21 21 21 22 22 22 21 21 21 20 20 20 20 20 20 20 19 19 19 18 18 19 18 17 17 18 19 19 19 19 19 19 18 18 17 17 16 16 15 15 15 15 15 15 15 15 15 15 15 15 15 15 15 15
24 24 24 24 23 23 23 23 23 22 21 21 21 21 21 21 21 21 21 21 21 21 21 21 22 22 21 21 20 20 20 19 19 19 19 18 18 18 19 19 20 20 19 18 18 18 18 18 19 19 19 18 18 17 17 17 17 16 16 15 15 15 15 15 15 15 15 15 15 15 15 15 15 15
24 24 24 23 23 23 23 23 23 22 21 21 21 21 21 21 21 22 21 21 20 20 20 21 21 21 21 20 20 20 20 19 19 19 19 19 19 19 19 20 21 21 20 19 18 18 18 18 18 18 18 18 17 18 18 17 17 16 16 16 16 16 15 15 15 15 15 15 15 15 15 15 15 15
24 24 23 23 23 23 23 23 23 22 21 21 21 21 21 21 22 22 21 20 20 20 20 20 20 20 20 20 20 19 19 19 19 19 19 20 20 20 20 20 20 20 20 19 18 17 18 18 18 18 18 18 18 18 18 17 17 16 16 16 16 16 16 15 15 15 15 15 15 15 15 15 15 14
24 24 23 23 23 23 23 23 22 22 21 21 21 21 22 22 22 22 22 20 19 19 19 19 19 19 19 19 19 19 19 19 18 18 19 20 20 20 20 20 20 20 20 19 17 17 18 18 17 18 18 18 18 18 18 17 17 17 17 16 16 16 16 16 16 15 15 15 15 15 15 15 14 14
24 24 24 23 22 22 23 22 22 21 21 21 21 21 22 22 22 22 22 21 19 19 19 19 18 18 18 18 18 18 18 18 18 17 18 19 20 19 20 20 20 20 20 19 17 17 17 17 17 17 17 17 18 18 18 17 17 17 17 16 16 17 16 16 16 16 16 16 16 15 15 15 15 14
25 24 24 24 23 22 22 22 21 21 21 21 21 21 21 21 21 22 21 20 19 19 19 19 19 18 18 18 18 18 18 18 18 17 18 19 19 19 19 20 20 20 19 18 17 17 16 16 17 17 17 17 17 17 17 17 17 17 17 17 17 17 17 17 17 17 17 16 16 16 16 15 15 14
25 25 25 24 23 22 21 21 21 21 21 21 21 20 21 21 21 21 21 20 19 19 20 19 19 19 19 19 19 19 18 18 18 18 18 19 19 19 19 19 19 19 18 17 16 16 16 16 16 16 16 17 17 17 17 17 17 17 17 17 17 17 17 17 17 17 17 17 17 16 16 15 15 15
25 25 25 24 24 22 21 21 21 20 21 21 20 20 20 20 20 21 20 20 19 20 20 19 19 19 19 20 20 19 19 19 19 19 19 18 18 18 18 18 17 17 17 17 16 16 15 15 16 16 16 16 16 16 17 17 17 17 17 17 17 17 17 17 17 17 17 17 17 16 16 16 16 15
25 25 25 24 23 22 21 21 20 20 20 21 20 19 19 20 20 20 20 19 19 20 20 19 19 19 20 20 20 19 20 19 19 18 19 18 18 18 17 17 17 16 16 16 16 16 15 15 15 15 15 15 16 16 17 17 17 17 17 17 17 17 17 17 17 17 17 16 16 16 16 16 16 16
25 25 25 24 23 21 21 21 20 20 20 21 20 19 19 19 19 19 19 19 19 19 19 19 19 19 19 20 19 19 19 19 18 18 18 18 17 17 17 16 16 16 16 16 16 16 15 15 15 15 15 15 15 16 16 16 16 17 17 17 17 17 17 17 17 17 17 16 16 16 16 16 16 16
24 24 24 24 22 21 21 20 20 20 20 20 19 19 19 19 19 18 19 19 19 19 19 19 19 19 19 19 19 18 18 18 17 17 17 17 17 17 17 16 16 16 16 16 16 16 16 15 15 15 15 15 15 15 16 16 16 16 16 17 17 17 17 17 17 17 17 17 16 16 16 16 16 16
23 23 23 23 22 21 20 20 20 20 19 19 19 18 19 19 18 18 18 19 18 18 19 19 19 19 19 19 18 17 17 17 17 17 17 17 17 18 17 17 16 17 17 17 16 16 16 15 15 15 15 15 15 15 15 15 16 16 16 17 17 17 17 17 17 17 17 16 16 16 16 15 15 16
21 21 22 22 21 20 18 18 18 18 18 18 18 18 18 18 17 18 18 18 18 18 19 19 19 19 19 18 18 17 17 17 17 17 17 17 17 18 18 17 17 18 18 17 17 16 16 15 15 14 14 14 14 15 15 15 15 16 17 17 17 17 17 17 17 17 16 16 15 15 15 15 15 16
19 19 19 19 18 17 17 16 16 16 16 16 17 17 17 17 17 17 18 18 18 18 18 18 18 18 18 18 18 18 18 18 17 17 17 17 17 17 18 17 17 18 18 18 17 17 16 15 15 14 14 14 14 14 14 15 16 16 17 17 17 17 17 17 17 17 16 15 15 15 15 15 15 16
18 17 17 17 17 16 16 15 15 15 15 15 15 15 16 17 17 17 17 17 18 18 18 18 18 18 18 18 18 18 18 18 18 17 17 17 17 17 17 17 18 18 18 18 17 17 16 16 15 15 15 14 14 14 14 14 16 16 17 17 17 17 17 17 16 16 15 15 15 15 15 15 15 15
17 16 16 16 16 16 16 15 15 15 15 15 15 16 16 16 17 17 17 17 18 17 17 18 18 18 18 18 18 18 18 18 18 18 17 17 17 17 17 18 18 18 18 17 17 17 17 16 16 16 16 16 16 16 15 15 15 16 17 17 17 17 16 16 16 15 15 15 15 15 15 15 15 15
17 16 16 16 16 15 16 15 15 15 15 15 16 16 16 16 16 16 17 17 17 17 17 18 18 18 19 19 18 19 19 19 19 18 17 17 17 17 17 18 18 18 18 17 17 17 17 16 16 16 17 17 18 18 18 16 16 16 17 16 16 16 16 16 15 15 15 15 15 15 15 15 15 15
17 17 17 16 16 16 16 16 15 15 15 15 16 16 16 16 16 16 17 17 17 17 17 18 18 18 19 19 19 19 19 19 19 19 18 18 18 18 18 18 18 17 17 17 17 17 16 16 16 16 17 17 17 18 19 18 16 16 16 16 16 16 16 15 15 15 15 15 15 15 15 15 15 15
17 17 17 17 16 16 16 16 15 15 15 15 15 15 16 16 16 16 17 17 17 17 17 18 18 19 19 19 19 19 19 19 18 19 19 19 18 18 18 18 18 17 17 17 17 16 16 16 16 16 17 17 17 18 18 18 17 16 16 15 15 16 15 15 15 16 15 15 15 15 14 14 14 14
17 17 17 17 16 16 16 16 15 15 15 15 15 15 16 16 16 16 17 16 16 17 18 18 19 19 19 19 19 19 19 19 19 19 19 19 19 18 18 18 18 18 17 17 17 17 16 16 16 17 17 17 17 17 17 17 16 16 16 15 15 15 15 15 15 15 15 15 15 14 14 14 14 14
17 17 17 16 16 16 16 15 15 15 15 15 15 16 16 16 16 16 16 16 17 17 18 18 19 19 19 19 19 19 19 19 19 19 19 19 19 18 18 18 18 18 17 17 17 17 17 17 17 16 16 16 15 15 15 15 15 16 16 16 16 15 15 15 15 15 15 15 14 14 14 14 14 14
16 16 16 16 16 16 16 16 16 16 16 16 16 16 16 16 16 16 16 16 17 17 18 18 18 18 19 19 19 19 19 20 19 19 19 19 18 18 17 17 17 17 17 17 17 17 17 17 16 15 15 14 14 14 15 15 16 17 17 17 17 16 15 15 15 14 14 14 14 14 14 14 14 14
16 16 16 16 16 16 16 16 16 16 16 16 16 16 16 16 16 16 16 17 17 17 18 18 18 18 19 19 19 19 20 20 19 19 19 18 18 18 17 16 17 17 17 17 17 17 17 16 15 15 15 14 15 15 16 17 17 17 17 17 17 16 15 15 15 14 14 14 13 13 13 13 13 13
16 16 16 16 16 16 16 16 16 16 16 16 16 16 16 16 16 16 17 17 17 18 18 19 18 18 19 19 19 19 19 19 19 19 18 18 18 18 17 16 16 17 17 17 17 17 16 16 15 15 15 15 16 16 17 17 17 17 17 17 17 16 16 15 15 15 14 14 14 13 13 13 13 13
16 16 15 16 16 16 16 16 16 16 16 16 16 16 17 17 17 17 17 17 17 18 19 19 19 19 19 19 19 19 19 19 19 18 18 18 18 18 17 17 17 17 17 17 17 17 16 16 16 16 16 16 16 16 17 17 17 17 17 17 17 16 16 16 15 15 15 15 14 14 13 12 12 12
15 16 16 17 17 17 17 16 16 16 16 16 16 16 17 17 17 18 18 18 18 18 19 19 19 19 19 19 19 19 18 18 18 18 18 18 18 17 17 17 17 17 17 16 16 17 16 16 16 16 16 16 16 16 16 17 16 16 16 17 17 17 17 16 15 15 15 15 15 14 13 13 12 12
Height
846 847 848 849 850 850 851 852 852 853 854 854 855 855 856 857 857 857 858 858 856 856 857 857 858 860 861 861 862 862 863 863 863 864 864 865 864 864 864 865 865 865 865 865 865 865 864 863 863 862 861 861 860 859 859 858 857 857 856 856 855 855 855 854 854 853 853 853 852 852 851 851 850 850
843 845 846 847 848 849 850 850 851 851 852 852 853 854 854 855 855 855 857 857 855 856 856 855 856 858 859 860 860 861 861 861 862 862 863 863 863 863 863 863 864 864 864 864 863 863 863 862 861 860 860 859 858 858 857 856 856 855 854 854 853 853 852 852 851 851 851 850 850 850 849 849 848 848
841 842 844 845 846 847 848 848 849 849 850 851 851 852 853 854 854 854 855 855 855 855 855 855 856 857 858 859 859 859 860 860 860 861 862 862 862 862 862 862 862 862 862 862 862 861 861 860 859 859 858 857 857 856 855 855 854 853 853 852 852 851 850 850 849 848 848 848 848 848 847 846 846 846
839 840 842 843 844 845 846 847 847 847 848 849 849 850 851 852 853 853 854 854 853 854 854 854 855 855 856 857 857 858 858 859 859 860 860 860 860 861 861 861 861 861 861 861 860 860 859 858 857 857 856 855 855 854 854 853 852 852 851 850 850 849 848 847 847 846 846 845 845 845 845 844 844 844
837 838 840 841 842 843 844 845 845 846 846 847 847 848 848 849 850 850 851 851 851 852 853 853 853 854 854 855 856 856 857 858 858 859 859 859 859 859 859 859 859 859 859 859 858 858 857 856 855 854 853 853 852 852 851 851 850 850 849 849 848 847 846 845 845 844 843 843 843 843 843 842 842 841
834 836 837 839 840 841 842 843 843 844 844 845 845 846 846 846 846 847 848 849 849 849 851 852 852 852 853 853 854 855 855 856 857 857 858 858 858 858 857 857 857 857 857 857 856 855 854 854 853 852 851 850 850 849 849 848 848 848 847 846 846 845 844 844 843 842 842 841 841 840 840 839 839 839
831 833 834 836 837 838 839 840 841 841 842 842 843 844 844 844 844 845 846 846 846 847 848 849 849 850 851 852 852 853 854 855 855 856 856 856 856 856 855 856 855 855 855 855 854 853 852 851 850 850 849 848 848 847 847 847 846 845 845 844 844 843 842 842 841 840 840 839 838 838 837 837 836 836
828 829 831 832 834 835 836 837 838 839 839 840 841 841 842 843 843 843 843 844 844 844 845 846 847 848 849 850 851 852 852 853 853 854 854 854 854 854 854 854 853 853 853 852 851 850 850 849 848 847 847 846 846 845 845 845 844 843 843 842 842 841 840 840 839 838 837 836 836 835 834 834 833 833
824 825 827 829 830 831 832 834 835 836 836 837 838 839 839 840 841 841 841 842 842 843 843 844 845 846 847 848 849 850 850 851 851 852 852 852 852 852 852 852 852 851 850 850 849 848 848 847 846 846 845 844 844 843 843 842 842 841 841 840 840 839 838 837 836 835 834 834 833 832 831 831 830 830
820 821 823 825 826 827 828 830 831 832 833 834 834 835 836 837 838 839 840 840 840 841 841 842 843 844 845 846 847 847 848 848 849 849 850 849 849 849 849 850 850 849 849 848 847 847 846 845 844 843 843 843 842 841 841 840 840 839 839 838 837 836 835 834 833 832 832 831 830 829 829 828 827 827
816 817 819 820 822 823 824 825 827 828 829 830 831 832 833 835 836 836 837 838 838 839 839 840 840 841 842 843 844 845 846 846 846 847 847 847 846 846 847 847 847 847 847 846 845 845 844 844 843 841 841 840 840 839 839 838 838 837 836 835 835 834 833 832 831 830 830 829 828 827 827 826 825 825
811 813 814 816 817 818 819 821 823 824 825 826 827 829 830 832 833 834 835 835 836 837 837 837 838 838 839 840 841 843 843 844 843 844 844 844 844 844 844 845 845 845 845 844 843 843 842 841 841 840 839 838 838 837 837 836 836 835 835 834 833 832 831 830 830 828 828 827 826 826 825 824 823 823
807 808 810 811 812 814 815 817 818 820 821 823 824 826 827 829 830 831 832 833 833 834 834 835 835 835 836 837 839 840 840 840 841 841 842 842 842 843 843 843 843 843 843 843 842 842 841 840 840 839 838 837 836 836 835 835 834 834 833 833 832 831 830 829 828 827 826 825 824 824 823 822 822 821
802 804 805 806 808 810 811 813 815 816 818 819 821 823 824 826 828 829 830 830 830 831 831 831 832 832 833 834 835 836 837 838 839 839 840 840 840 841 841 841 841 841 841 841 841 840 840 839 838 837 837 836 835 835 834 833 833 832 832 831 830 829 828 827 826 825 824 823 822 822 821 820 820 819
798 799 801 802 804 805 807 809 811 813 815 817 819 821 822 824 826 827 828 828 828 829 829 829 829 829 830 830 832 834 835 836 837 837 838 838 838 839 838 838 839 839 840 840 839 838 838 838 837 836 835 834 834 833 832 831 831 831 830 830 828 827 826 825 824 823 822 821 820 819 819 818 818 817
793 795 797 798 800 801 802 805 807 809 812 814 816 819 821 822 824 826 827 828 828 828 828 827 827 827 827 828 829 831 832 833 834 835 836 836 836 836 837 837 837 838 838 838 837 837 837 836 835 834 834 833 832 832 831 830 830 830 829 828 826 825 824 823 822 821 820 819 818 817 817 816 815 815
789 791 793 794 796 796 798 801 804 806 808 811 814 817 819 820 822 824 826 826 827 827 827 827 826 826 826 826 827 828 829 831 832 833 834 834 834 834 835 835 836 836 836 836 836 836 836 835 834 833 832 831 831 831 829 828 829 828 827 826 825 823 822 821 820 819 818 818 817 816 815 814 813 813
785 787 788 790 791 793 794 797 800 802 804 807 811 814 816 818 819 820 822 824 825 826 825 825 825 825 825 825 825 826 827 829 830 831 831 832 832 833 833 834 834 834 834 835 835 835 834 834 833 831 831 830 830 829 828 827 827 827 826 825 823 822 821 820 819 818 817 816 815 814 814 813 812 811
781 782 784 785 787 788 789 791 795 798 801 803 807 810 812 814 815 816 819 821 822 824 824 823 824 824 824 824 824 824 825 827 828 829 829 830 831 831 832 832 832 832 832 833 835 834 833 833 832 830 829 829 828 828 827 826 825 825 824 823 822 821 820 818 818 817 816 815 814 813 812 811 810 809
777 778 778 779 781 783 785 786 790 794 797 800 803 806 809 811 812 813 815 817 820 821 822 822 822 822 822 822 822 823 824 825 826 827 828 829 829 830 830 830 829 829 830 831 832 833 832 832 831 829 828 828 827 826 826 825 823 823 822 822 820 819 818 817 815 815 814 813 812 811 810 809 808 807
770 772 773 773 775 778 780 782 785 790 794 797 799 802 804 807 808 810 812 814 817 819 820 820 820 821 821 821 821 821 822 823 824 826 827 827 827 827 827 827 827 828 829 829 831 832 831 831 830 829 827 826 826 825 824 823 822 821 820 819 818 817 816 815 814 813 812 811 810 809 808 807 806 805
763 765 767 768 770 773 774 777 780 784 789 793 795 797 800 802 804 806 808 811 814 817 818 819 819 820 820 820 820 820 820 821 823 824 825 825 824 824 825 825 826 827 828 828 829 830 830 830 829 828 826 825 824 823 822 822 822 820 819 818 817 815 815 814 812 811 810 809 808 807 806 805 804 803
757 759 762 763 765 768 770 772 775 779 784 788 791 793 795 797 799 801 804 807 810 813 815 817 817 818 819 819 819 819 819 820 821 823 823 823 823 823 823 824 825 826 826 826 828 829 829 828 828 827 825 823 822 821 821 821 820 819 818 817 815 814 813 812 810 809 808 807 806 805 804 803 802 801
751 754 757 758 760 763 765 767 770 774 779 783 786 788 790 792 794 797 800 802 805 809 812 814 815 816 818 818 818 818 818 818 819 821 822 822 821 821 822 822 823 825 825 825 826 828 828 827 827 826 825 823 821 820 820 819 819 818 817 815 814 812 811 809 808 806 805 804 803 802 801 801 800 799
745 747 750 752 754 757 760 763 767 771 775 779 782 784 785 788 791 794 796 798 801 805 809 812 813 815 816 817 817 817 816 817 818 819 820 820 820 820 820 821 822 823 824 824 825 827 827 826 825 825 824 823 821 819 819 818 817 816 815 814 812 811 809 808 806 804 803 801 800 799 798 798 797 796
737 739 743 746 748 751 756 759 763 768 772 776 778 780 782 785 788 791 793 796 798 801 806 809 810 812 814 815 815 815 814 815 816 817 818 818 818 819 819 820 822 823 824 823 824 825 825 824 824 823 823 822 821 819 818 816 815 814 813 812 811 809 808 806 804 802 801 800 798 797 796 795 794 793
729 732 736 738 739 744 750 753 758 763 768 772 775 777 780 782 785 788 790 793 794 797 801 805 807 808 810 812 812 812 812 813 814 815 815 816 817 817 818 819 821 822 823 823 823 823 823 822 822 822 822 821 820 819 817 814 813 812 811 810 809 807 806 804 802 801 800 798 797 796 795 793 792 790
724 726 728 729 732 737 743 746 752 758 763 767 771 774 776 779 782 784 787 790 791 792 795 799 802 804 807 808 809 810 810 811 812 813 813 814 815 816 817 818 819 820 821 821 821 820 820 820 820 820 820 820 819 817 815 813 812 811 810 808 807 806 804 802 801 799 798 797 795 794 793 791 790 788
720 721 722 724 727 732 736 740 745 752 758 762 766 770 773 775 778 780 783 786 788 788 790 794 798 801 803 805 806 807 808 809 810 810 812 813 813 814 815 816 817 818 818 818 818 818 818 818 818 818 818 818 817 816 815 813 811 809 808 807 805 803 802 800 799 798 796 795 794 792 791 790 788 787
718 718 719 719 721 725 727 730 735 743 750 756 761 765 768 771 773 774 776 779 781 783 786 790 795 798 800 802 804 805 806 807 807 808 810 811 812 813 814 815 815 816 816 816 815 815 816 815 815 815 815 815 815 814 813 812 809 808 807 805 803 801 799 798 797 795 794 793 791 790 789 787 786 784
711 713 715 716 718 720 721 722 726 733 742 749 755 759 763 766 769 771 772 773 775 778 782 787 791 795 798 800 801 802 803 804 805 806 808 809 810 811 812 813 814 813 813 813 813 813 813 813 813 813 813 813 812 811 811 810 808 806 804 803 801 799 797 796 794 793 792 791 790 788 786 785 783 782
704 707 710 713 717 720 723 723 725 729 736 741 746 751 757 763 768 770 771 771 772 775 780 785 788 792 795 797 798 799 800 801 802 804 806 807 807 808 809 811 811 810 809 809 810 810 810 810 810 810 810 810 810 809 809 808 806 804 802 800 798 797 795 794 792 791 790 789 787 785 784 782 781 779
707 707 708 711 714 718 722 724 726 729 734 738 742 748 754 761 766 768 768 768 769 772 777 783 787 789 791 794 795 796 797 798 800 802 804 805 806 806 807 808 808 807 806 806 807 807 808 808 807 807 807 807 806 807 806 805 803 801 799 797 796 794 793 792 791 790 789 787 785 782 781 779 778 776
704 706 708 710 712 715 718 719 722 726 730 734 738 743 749 756 762 765 766 765 766 770 775 781 785 787 789 790 792 793 794 796 798 800 802 803 804 805 805 806 805 804 804 804 804 804 805 805 805 804 804 803 803 803 803 802 800 798 797 796 794 792 791 790 789 788 787 785 783 780 777 776 775 773
695 699 702 704 706 709 711 713 716 719 724 729 733 736 740 748 756 760 761 762 763 767 773 779 783 784 785 787 788 789 791 793 795 798 799 801 802 802 803 803 802 801 801 801 801 801 802 802 802 801 800 799 798 796 796 797 797 796 795 794 792 791 790 789 788 787 785 783 781 778 775 772 771 770
684 689 692 696 699 703 706 708 711 715 720 724 728 729 734 742 750 755 757 759 761 764 770 776 779 781 782 784 785 786 788 790 792 795 797 799 799 800 800 800 799 798 798 798 798 799 799 799 799 798 797 796 794 792 790 791 794 794 793 792 790 789 788 787 785 784 782 780 779 777 773 770 767 766
677 681 685 688 692 696 701 704 708 713 717 721 725 728 732 738 745 751 754 756 759 763 768 773 776 777 779 780 782 784 785 787 789 791 793 795 796 797 797 797 796 796 796 795 796 796 797 797 797 796 795 793 792 790 789 789 791 791 791 790 789 787 786 785 783 781 780 778 777 775 772 768 765 763
669 674 678 681 684 688 693 698 703 707 710 713 718 726 733 738 744 750 752 753 756 762 767 770 772 774 776 777 779 780 782 784 787 788 789 791 792 794 795 794 793 793 793 793 793 794 794 794 794 793 793 792 791 790 789 789 789 788 788 788 786 785 784 782 780 778 777 775 774 772 770 767 763 760
662 668 671 675 680 684 688 692 697 702 706 710 716 723 731 736 742 747 750 751 754 760 764 767 769 771 773 774 776 777 779 782 784 785 786 787 788 790 792 792 791 791 790 790 790 791 791 791 791 790 790 791 790 790 790 789 788 787 786 784 783 782 782 780 778 777 775 773 771 769 767 764 761 758
656 662 666 670 676 680 684 688 693 698 706 713 719 724 729 734 740 745 748 750 753 757 761 764 766 768 770 771 773 775 777 779 781 782 783 785 786 788 789 789 789 788 788 787 787 788 788 787 787 787 788 789 790 790 790 789 786 783 781 780 779 779 779 778 777 775 773 771 769 766 763 761 758 755
651 657 662 667 671 675 680 685 690 695 703 712 719 724 728 732 737 742 745 747 750 754 758 761 763 765 766 768 770 772 773 775 777 780 781 783 784 786 787 788 787 787 786 785 785 785 785 784 784 785 786 787 788 788 787 785 782 779 777 777 776 775 775 774 774 774 771 770 768 765 762 759 756 753
647 652 658 663 668 673 679 684 688 693 701 710 718 724 727 732 736 740 743 746 749 752 755 758 760 762 763 765 768 769 770 772 775 778 779 780 781 783 785 786 785 784 783 783 782 782 782 783 783 783 784 785 785 785 783 781 778 776 776 775 773 772 771 771 770 770 768 767 766 764 761 759 755 752
644 649 656 661 666 672 678 683 688 693 701 709 716 721 726 731 735 738 740 743 747 750 753 755 756 758 760 762 764 767 769 771 773 775 777 778 779 780 782 783 783 781 780 780 780 780 781 781 781 781 781 781 782 782 780 778 777 775 774 772 771 771 769 768 767 766 765 763 762 761 760 759 756 752
643 649 656 661 665 671 679 684 689 694 702 709 715 720 724 729 733 735 737 741 744 747 750 752 753 755 757 759 761 764 767 769 771 773 774 775 777 778 779 779 779 779 778 778 778 778 778 778 778 778 778 778 779 778 777 776 775 773 772 770 770 769 767 766 765 764 762 760 758 757 756 756 754 752
641 648 655 662 666 672 680 686 691 696 703 709 714 719 723 727 730 732 735 739 742 745 747 749 751 753 755 757 760 762 765 767 769 771 772 773 774 776 777 777 776 776 776 776 776 776 775 775 775 775 775 776 776 776 775 774 773 772 770 768 767 766 765 764 763 762 759 757 755 754 753 752 751 749
Wind_Speed
13 13 12 12 10 9 9 9 9 9 8 7 7 8 7 6 3 2 2 2 2 2 3 3 4 3 3 3 5 5 5 7 8 6 5 5 5 6 7 8 8 9 9 10 11 11 11 12 14 15 16 17 18 19 20 21 22 23 22 22 21 20 20 20 19 19 19 18 18 18 17 17 17 17
13 13 12 12 11 10 10 10 10 10 9 9 9 9 9 8 6 4 2 2 3 4 4 4 2 3 3 4 5 5 5 7 7 5 5 4 5 7 6 6 7 8 9 10 10 11 12 14 16 17 19 19 20 20 20 21 21 22 21 21 21 21 21 21 21 21 20 20 20 19 19 19 19 19
14 14 13 12 11 10 10 11 11 11 11 11 10 10 9 9 8 7 5 3 3 4 4 4 2 2 4 5 5 5 6 7 7 5 4 5 6 6 5 6 7 7 9 9 10 12 14 15 17 18 20 21 21 20 20 19 19 19 19 18 19 20 21 21 22 22 21 20 20 20 19 20 20 21
14 15 14 13 12 11 11 11 12 12 12 12 11 11 11 10 9 8 7 5 4 4 4 3 4 4 5 5 6 7 6 7 7 6 5 6 5 5 5 6 7 8 8 9 10 12 14 15 17 19 20 21 20 20 20 19 19 18 18 18 18 19 20 21 21 21 21 19 19 19 19 19 19 20
15 15 15 15 14 13 12 12 13 13 13 13 12 12 12 11 11 10 9 7 5 5 4 4 4 4 5 5 7 8 7 7 7 7 6 6 6 6 7 8 9 9 9 9 10 12 14 15 17 18 19 19 19 18 18 19 19 18 19 19 19 19 19 19 18 18 18 17 17 17 18 18 18 19
16 16 16 16 15 14 14 14 14 13 14 14 14 13 13 13 12 12 11 9 7 6 5 6 6 6 6 6 6 7 8 7 7 7 7 7 7 7 8 8 9 10 11 11 12 13 14 14 14 15 16 16 16 16 16 17 18 18 19 19 20 20 19 18 17 17 17 17 18 19 19 20 21 21
17 17 17 17 17 16 16 16 15 15 15 15 14 14 14 13 13 12 12 10 8 7 7 7 7 8 7 7 6 7 7 7 7 9 9 8 8 8 9 9 9 10 11 12 13 13 12 12 13 13 14 15 15 15 15 16 17 17 18 18 19 20 20 20 19 19 20 21 22 22 23 23 24 24
19 19 18 19 18 18 18 17 17 16 16 16 15 15 14 14 13 12 13 12 10 8 7 8 7 7 7 7 7 7 7 7 8 9 9 9 9 9 9 8 8 10 12 13 12 11 11 11 12 13 14 16 16 17 17 18 18 18 18 19 20 20 21 22 22 23 24 24 25 25 25 25 25 25
21 20 20 20 20 20 19 19 18 18 17 17 16 16 16 15 14 13 13 13 12 10 9 8 8 7 7 7 8 8 8 8 8 8 9 9 9 9 9 9 8 10 13 12 10 10 10 11 12 13 14 15 16 17 17 18 18 18 18 19 20 22 23 24 24 25 25 25 25 24 23 23 23 23
22 22 22 21 21 22 21 20 19 19 19 19 18 18 17 16 15 14 13 12 12 11 10 9 8 8 8 8 8 9 9 9 9 9 9 10 10 9 8 8 8 9 10 9 8 9 9 9 11 13 14 14 15 16 17 18 18 18 19 20 20 21 22 22 22 21 21 22 22 22 21 20 20 20
24 23 23 23 23 24 23 22 21 21 21 20 20 20 19 17 16 15 14 13 12 12 11 10 9 8 8 9 9 9 10 9 9 10 10 9 9 9 8 8 7 7 8 10 10 8 8 10 11 12 15 15 15 16 16 16 17 17 17 17 17 18 17 17 16 17 17 17 18 19 19 18 18 17
24 24 24 24 24 25 25 24 23 22 22 21 20 20 19 18 17 15 14 13 13 12 11 11 10 9 9 9 9 9 10 10 10 10 9 8 7 7 7 6 6 7 7 8 8 7 9 12 11 12 15 15 14 15 15 15 14 11 11 13 14 15 15 13 13 14 14 15 15 16 17 17 17 16
25 25 25 25 26 26 27 28 26 24 24 23 21 20 21 19 18 17 15 14 14 13 12 11 11 10 10 10 10 10 11 11 10 8 8 7 6 6 6 6 6 6 6 6 6 7 10 12 12 12 14 13 12 14 14 13 10 7 8 11 13 14 14 13 14 15 15 15 15 16 16 16 16 16
26 26 26 26 27 28 29 30 30 28 28 27 23 21 21 21 20 18 17 16 15 14 13 13 12 11 11 11 11 12 12 10 9 8 7 7 7 6 7 7 6 4 4 6 7 9 11 12 12 12 12 11 11 11 11 10 9 10 12 14 14 15 16 17 18 18 19 19 19 19 19 18 18 18
26 26 25 25 26 29 32 32 32 31 30 29 27 24 23 23 22 19 18 17 16 15 14 13 13 12 11 11 10 11 11 10 9 8 8 7 7 7 8 8 5 4 3 5 8 11 11 10 11 12 11 11 10 9 10 11 13 15 17 17 17 17 18 19 20 21 21 21 20 20 20 20 20 20
25 25 25 24 24 28 33 33 32 32 31 30 29 27 25 25 23 21 19 17 16 15 14 13 13 12 11 11 10 11 11 9 9 9 8 8 8 8 7 6 5 3 3 5 8 11 10 9 11 12 11 10 10 10 11 12 14 15 16 16 16 16 16 17 17 17 18 18 18 17 17 18 19 20
25 25 24 24 23 24 30 33 30 30 32 31 29 28 27 26 25 23 22 20 18 16 14 14 14 13 11 10 10 10 9 8 9 10 9 9 8 7 5 5 5 4 4 5 7 9 10 9 11 11 11 10 9 10 11 12 14 15 14 13 13 13 13 13 13 14 14 15 16 16 17 17 18 18
25 26 25 25 23 23 28 33 30 26 28 30 29 28 28 26 24 24 25 24 22 19 16 15 15 13 12 10 9 9 10 9 9 9 9 8 6 5 5 5 6 6 5 3 5 8 9 9 11 12 11 10 9 9 11 13 15 13 11 11 12 13 13 13 13 13 14 14 16 17 17 17 17 18
26 27 27 27 25 24 27 33 31 25 23 25 26 26 25 23 21 21 23 24 24 22 19 16 15 14 13 11 10 10 11 9 8 7 6 5 4 4 4 5 6 6 5 5 4 8 9 9 11 12 10 10 10 10 12 14 14 12 11 12 13 13 14 15 15 16 15 15 16 16 16 17 18 19
26 27 29 28 28 27 28 32 33 28 23 21 23 23 21 20 19 18 20 22 23 22 20 18 17 15 14 14 12 12 11 9 7 7 6 5 5 5 4 4 4 3 3 5 5 7 8 9 10 12 11 10 11 11 12 12 11 12 14 14 14 14 15 15 15 16 17 17 16 16 16 18 19 21
27 30 30 29 28 28 28 31 33 32 27 22 22 22 20 19 18 17 18 21 24 24 22 20 19 18 17 17 15 13 13 11 9 8 8 7 7 6 4 3 3 3 3 4 3 4 8 9 9 11 12 11 12 12 10 9 10 13 16 16 15 16 15 14 14 15 15 15 15 16 16 17 18 19
29 32 33 32 30 27 28 31 33 33 31 25 22 22 21 19 19 18 17 18 21 24 23 21 21 19 18 17 15 14 13 13 12 10 8 8 7 6 4 3 3 4 6 4 2 3 8 8 8 10 11 12 12 10 9 9 11 14 15 15 16 15 14 14 14 13 13 13 14 16 16 16 15 15
30 31 33 35 35 29 28 32 34 34 34 28 23 23 22 20 20 20 18 17 19 22 22 21 21 21 19 16 15 14 14 13 13 11 9 7 6 6 4 3 3 5 5 2 3 4 8 8 8 9 10 10 10 10 10 11 12 13 14 15 15 14 14 15 15 13 13 13 14 15 16 15 15 13
28 29 30 34 37 35 33 33 33 34 35 31 25 24 24 22 21 21 21 20 20 20 20 19 18 18 17 15 14 14 14 14 14 13 11 8 7 7 5 4 4 5 4 2 2 4 7 8 9 9 9 9 10 12 12 12 13 14 14 13 14 13 14 15 15 14 14 14 15 16 16 16 15 13
28 29 30 32 34 36 37 35 32 32 35 33 28 26 25 24 22 21 21 21 21 21 20 19 17 15 15 14 13 13 13 14 14 13 12 10 8 7 5 4 5 5 4 2 3 5 7 8 9 8 9 10 12 14 14 14 14 13 12 12 14 13 14 14 14 14 14 14 15 16 15 15 16 17
29 28 29 29 30 35 39 38 34 31 33 34 32 28 26 24 22 22 21 21 21 21 20 20 18 16 16 16 15 14 13 14 14 14 13 11 9 7 5 4 5 6 5 5 6 6 7 7 8 8 9 10 12 14 15 15 14 12 12 13 13 14 14 14 13 13 13 14 14 14 14 16 19 20
30 27 27 28 31 34 39 40 36 32 31 35 34 30 26 25 25 24 21 20 21 22 21 20 18 17 18 17 16 15 14 14 15 13 12 11 10 7 6 6 6 7 7 8 7 7 7 8 7 7 8 11 12 14 14 14 14 13 14 14 13 13 13 13 13 13 13 13 13 14 15 17 19 19
30 27 27 30 34 36 38 39 37 33 32 35 37 33 28 27 26 25 23 23 23 22 21 20 19 18 19 18 16 15 14 14 15 13 11 11 10 8 7 7 8 9 9 9 9 8 9 9 7 7 8 10 12 13 13 15 15 15 15 14 14 13 13 12 13 13 12 13 14 14 15 16 17 18
32 30 31 32 34 36 37 37 36 35 35 36 38 36 30 28 28 27 26 25 24 22 21 21 20 19 19 18 16 15 15 14 15 13 11 10 9 8 8 8 9 10 11 10 10 9 9 9 8 7 8 10 12 13 14 15 16 16 15 15 15 14 13 12 12 12 13 14 14 15 16 17 18 18
32 31 33 36 35 36 38 38 38 39 39 39 38 36 33 31 30 30 29 28 26 23 22 22 22 20 19 17 16 16 16 15 15 14 12 10 9 8 8 9 10 11 11 11 10 9 9 9 8 8 9 10 12 13 14 15 17 17 16 15 15 14 12 11 12 13 13 14 15 16 17 19 19 19
36 33 34 37 38 37 38 39 40 41 42 41 38 37 36 33 30 29 30 29 28 26 24 23 23 20 18 17 17 17 17 15 14 14 13 11 10 9 10 10 10 10 10 10 10 9 9 9 8 8 9 10 12 13 14 15 17 17 16 14 14 13 13 13 13 13 13 15 16 18 18 19 18 18
36 34 35 36 37 37 38 39 40 41 43 43 41 39 37 33 29 28 29 28 28 27 24 22 21 20 19 19 18 18 17 15 14 14 13 11 10 10 10 11 11 10 9 8 9 9 9 9 9 9 9 10 12 14 15 16 16 16 15 14 13 14 14 13 14 14 14 16 18 18 18 18 18 18
26 29 35 37 37 38 38 37 35 34 36 37 36 35 33 31 29 28 29 29 28 26 23 20 19 19 19 19 18 17 16 14 13 13 13 12 11 10 11 12 12 11 9 8 8 8 8 9 8 9 10 12 13 14 15 16 16 14 13 13 13 13 13 13 14 15 15 17 18 19 19 18 18 19
26 29 35 36 36 37 37 34 30 29 30 32 31 32 33 33 30 29 29 29 28 25 22 20 19 19 19 18 17 16 15 14 13 13 13 12 12 12 12 13 13 11 10 9 8 7 8 7 8 9 11 12 14 16 17 16 15 13 12 12 13 13 13 14 14 15 16 17 18 19 20 20 19 19
32 34 37 36 36 37 37 34 32 32 34 35 35 36 36 35 32 31 30 29 27 25 22 20 19 19 18 17 17 16 15 14 13 13 13 13 13 13 13 14 13 11 10 9 8 8 7 7 8 8 9 11 12 15 18 19 14 11 11 12 12 13 14 14 14 15 16 17 17 18 21 22 21 20
35 37 37 33 34 35 34 33 33 34 35 34 34 35 34 33 32 32 31 29 26 24 22 20 19 19 18 17 17 16 15 14 14 13 13 14 14 14 14 14 13 11 10 9 9 8 7 7 7 8 8 8 9 9 10 14 13 8 11 12 12 13 14 14 14 15 16 16 17 18 20 22 23 22
33 35 36 33 34 34 32 32 34 33 32 31 30 31 31 31 31 30 29 28 25 22 21 21 19 18 18 17 16 16 15 14 14 14 15 14 14 15 15 14 13 12 11 10 9 8 8 8 7 7 7 6 6 7 6 7 10 10 11 12 13 14 14 14 15 15 16 16 17 19 20 23 25 24
35 35 34 34 36 36 35 35 36 34 34 33 32 31 30 29 29 28 27 27 24 21 21 21 19 18 18 17 16 16 14 14 15 16 17 16 16 17 16 14 12 12 11 10 9 9 9 8 8 8 7 6 6 6 7 7 9 10 11 13 16 15 13 13 15 16 17 18 19 20 20 22 24 25
39 37 33 32 34 34 35 35 34 32 32 32 32 32 31 30 29 28 26 25 23 21 21 21 19 18 18 17 17 15 14 14 16 18 17 16 16 17 16 14 12 11 10 10 10 9 10 10 9 8 8 7 8 8 10 12 14 14 15 18 18 14 12 13 15 17 18 19 20 21 21 21 22 23
38 36 33 33 33 32 32 33 32 31 31 30 32 34 33 31 30 27 24 23 23 22 22 21 19 18 18 17 16 15 15 16 18 18 16 15 16 16 15 14 12 11 10 10 10 10 10 10 9 8 7 8 10 12 14 15 17 18 17 16 15 12 11 11 13 16 19 20 20 22 21 21 21 21
35 33 32 33 34 34 36 36 35 35 34 33 33 34 33 32 29 26 25 25 25 23 21 20 19 19 18 16 16 15 16 17 17 17 16 15 15 15 14 13 12 11 11 11 11 11 9 7 7 8 9 10 11 12 13 13 14 14 13 12 12 11 10 10 12 15 17 19 20 21 20 20 21 21
35 34 34 36 36 37 37 37 36 36 35 33 32 32 31 29 28 27 26 26 26 23 21 19 19 18 17 16 15 15 16 16 16 17 16 15 15 14 14 14 13 12 12 11 11 9 7 6 6 8 9 9 10 11 12 12 12 12 13 13 12 11 10 11 13 14 16 19 19 18 19 19 19 19
34 34 36 37 38 37 37 36 35 35 35 34 33 32 30 28 27 27 26 24 23 23 21 19 18 18 17 16 16 16 16 16 16 16 16 15 15 15 14 15 14 13 12 11 10 8 7 7 7 7 8 9 10 12 13 13 13 13 13 13 12 11 12 13 13 14 17 20 19 16 16 17 16 17
35 35 35 35 36 36 34 34 35 35 35 34 33 32 30 28 26 26 24 22 22 23 21 19 18 18 17 16 16 17 17 16 16 16 15 15 15 15 14 14 14 13 11 10 9 9 8 8 7 7 8 10 11 11 13 13 13 13 13 13 13 13 12 11 12 14 18 19 17 15 16 17 18 21
38 39 36 34 34 33 32 33 34 34 34 32 32 31 30 26 24 23 22 22 23 22 21 19 18 17 17 16 16 17 17 16 15 15 15 14 15 15 14 14 13 12 12 11 10 9 8 7 7 8 9 10 11 12 13 13 13 14 14 13 12 12 11 11 12 15 17 16 14 14 15 16 19 22
Wind_Direction
209 211 208 208 213 211 207 211 210 207 209 211 209 209 214 220 230 229 213 225 218 211 246 228 166 170 234 215 213 221 220 236 248 256 251 236 239 252 247 243 248 253 257 260 261 264 271 277 280 281 281 281 281 281 282 281 280 277 275 274 276 277 277 278 278 277 273 270 269 268 269 271 272 271
209 212 209 206 209 210 207 209 208 203 204 207 207 208 210 211 220 236 231 218 218 210 236 249 184 147 185 203 204 207 214 240 248 239 239 234 232 245 250 247 249 253 254 253 256 264 273 278 280 282 282 282 282 282 284 284 282 281 278 277 278 278 279 279 280 280 277 274 271 268 267 268 270 270
210 210 207 204 205 205 206 207 206 203 201 204 205 206 207 210 217 230 239 231 207 207 223 242 220 173 188 200 206 206 214 237 238 221 227 234 233 244 251 248 246 244 247 255 264 271 275 277 278 279 279 279 279 281 284 284 281 279 279 279 280 282 283 282 282 282 280 277 273 269 267 267 269 270
209 209 206 205 204 204 205 206 206 203 201 202 205 205 205 209 213 217 230 239 219 213 226 229 218 203 194 199 211 214 217 231 231 219 223 233 236 244 249 249 248 247 254 266 274 277 278 278 279 279 278 279 278 279 280 279 275 273 275 278 281 284 285 284 282 281 279 277 273 272 271 271 272 272
209 208 207 207 205 203 206 207 207 204 202 202 203 205 205 205 207 208 217 234 234 216 212 221 219 204 200 208 213 219 222 223 223 220 222 232 239 244 247 250 252 256 270 281 285 287 286 283 281 281 281 281 280 277 274 271 269 270 274 278 282 286 286 285 281 278 275 274 273 273 275 276 277 275
207 207 208 207 204 204 207 208 209 207 203 203 203 204 204 204 204 204 209 222 230 217 202 211 215 204 211 220 212 219 227 221 217 222 225 230 239 247 254 258 256 257 271 288 297 296 290 284 283 283 282 281 279 275 270 268 268 270 274 278 282 285 284 281 278 275 273 274 276 278 279 281 281 281
207 207 208 208 205 203 206 208 210 209 206 205 206 204 205 208 205 202 206 213 219 221 210 207 211 204 206 216 212 213 223 224 224 226 228 236 247 252 257 265 266 260 269 290 301 297 291 286 284 283 280 278 275 273 271 272 273 274 275 277 278 278 277 276 276 277 278 279 281 283 284 285 284 283
209 209 208 210 207 203 205 207 209 210 208 207 209 207 206 209 208 204 205 208 213 219 214 208 211 210 208 213 214 210 215 223 224 226 232 241 250 251 253 263 265 261 276 297 304 296 292 287 282 282 282 279 277 277 278 278 279 278 277 277 276 275 275 277 279 281 283 285 286 287 287 286 285 283
210 210 211 211 208 204 205 206 208 209 209 208 209 210 208 208 210 208 206 207 209 212 215 212 208 211 216 220 216 211 214 219 220 225 234 242 249 252 258 266 264 266 283 301 307 303 303 296 288 288 289 288 287 286 285 284 282 281 279 279 279 280 281 283 285 286 288 289 289 290 289 288 286 284
211 212 213 212 209 207 205 206 208 208 207 208 209 210 209 207 208 208 207 207 208 209 215 218 214 215 220 224 222 215 215 221 227 231 238 245 244 240 248 263 268 270 278 285 288 295 303 299 293 293 296 295 293 290 289 287 285 285 285 285 286 288 289 290 291 290 290 289 290 291 292 291 290 288
214 213 214 214 212 209 207 207 208 207 206 209 210 210 210 209 208 209 209 208 208 211 215 218 221 222 222 226 228 217 213 227 237 238 243 248 238 224 231 254 269 275 282 285 283 282 295 305 300 296 300 301 298 295 293 291 290 289 289 292 294 296 297 295 293 290 287 286 285 287 289 289 288 287
215 215 215 216 215 212 210 209 209 207 205 207 210 211 209 209 210 210 209 209 210 212 214 218 221 222 221 224 224 213 212 227 237 235 240 251 250 241 240 248 261 276 291 300 297 289 300 311 308 300 303 305 303 302 301 302 301 291 287 294 297 298 298 293 287 284 284 284 283 283 284 283 282 281
216 216 216 218 218 216 215 215 213 210 209 209 209 209 208 208 209 210 209 208 209 211 213 217 219 220 221 221 221 219 218 227 236 232 233 249 261 263 261 264 266 271 288 304 304 298 300 305 303 298 299 301 300 301 302 302 301 287 282 293 293 290 290 286 282 281 280 280 281 280 280 280 280 278
215 216 217 218 219 219 220 222 221 219 220 220 215 209 207 206 205 208 211 209 209 211 213 215 217 219 221 220 222 225 225 231 237 231 231 246 259 264 273 282 275 255 279 303 302 301 303 302 300 298 298 298 297 298 297 291 289 290 292 294 289 283 283 282 282 283 282 281 280 279 279 278 277 277
214 216 218 218 218 219 222 226 228 227 228 228 224 217 213 213 212 210 212 214 213 213 215 217 217 218 221 220 220 225 230 233 230 227 232 242 254 264 276 286 278 248 278 306 302 301 303 300 296 295 297 299 297 294 291 287 289 294 296 295 292 288 285 283 282 282 283 284 284 282 280 279 277 277
214 215 216 217 216 217 221 225 227 229 230 230 228 223 219 222 223 219 218 220 220 219 220 220 218 217 219 219 220 228 237 232 222 226 234 238 252 266 272 275 272 265 296 309 300 299 303 300 294 294 295 296 296 295 292 291 294 299 301 299 298 297 294 291 289 285 284 285 285 284 282 280 279 279
214 213 214 216 213 215 221 223 222 226 229 228 228 226 224 226 229 228 226 225 226 227 226 226 225 221 219 219 220 224 226 223 222 229 237 246 255 257 250 256 269 281 294 295 291 295 301 301 296 296 298 297 296 297 292 292 301 308 309 306 306 305 303 300 297 293 289 288 286 285 284 282 281 281
214 212 212 213 211 211 220 223 218 216 222 224 222 223 224 225 228 230 230 229 231 232 232 232 231 227 222 217 211 203 201 208 222 234 245 251 244 233 238 253 268 271 260 254 283 294 300 305 300 297 301 299 296 295 291 294 305 313 313 310 309 309 307 304 301 298 293 289 286 284 283 282 281 280
217 215 213 214 213 209 217 225 219 206 205 211 213 214 217 219 220 223 226 228 229 230 232 234 234 232 225 213 200 195 197 208 220 223 230 228 208 218 245 250 259 259 222 201 263 290 297 306 303 298 303 303 298 299 297 296 301 306 310 312 310 307 304 301 299 298 295 292 289 286 285 285 285 283
220 220 216 213 215 213 217 226 223 209 197 196 200 204 207 210 212 216 222 225 226 227 228 231 234 234 223 207 199 199 199 198 198 193 193 194 194 209 231 242 260 264 200 195 240 285 297 306 305 300 305 306 301 300 298 294 296 301 308 312 313 312 311 306 300 296 293 293 293 290 289 289 288 286
223 226 219 213 214 215 216 224 224 212 199 192 194 197 199 203 207 210 216 221 224 226 225 225 230 231 222 213 212 212 208 199 188 184 192 203 202 199 207 236 262 280 270 242 239 285 300 305 305 302 305 306 301 298 294 292 295 298 303 310 313 314 315 315 311 302 294 292 293 292 292 291 291 292
223 227 225 218 215 213 215 223 223 213 202 196 192 192 192 196 203 202 200 205 214 221 221 220 222 223 221 222 221 218 215 210 198 192 199 210 205 196 208 238 260 284 287 262 215 287 303 306 305 303 305 304 301 300 300 297 295 296 301 308 310 306 304 309 313 306 296 294 293 292 292 293 295 296
222 226 227 224 220 215 216 222 222 213 206 199 193 192 192 195 199 199 193 191 200 209 212 212 215 217 219 221 218 213 214 212 204 198 203 209 199 192 213 236 251 279 284 213 172 285 303 307 307 306 306 305 305 308 307 301 298 299 301 303 303 302 301 304 306 301 295 294 295 295 295 295 296 295
219 221 224 225 223 219 218 221 219 213 209 201 192 191 194 195 196 195 193 191 194 201 204 203 205 209 210 207 205 206 208 207 204 201 202 203 190 186 208 228 238 267 279 199 178 297 304 303 303 304 305 303 302 305 307 305 304 302 299 297 299 302 304 305 304 301 296 293 293 294 293 292 291 290
217 217 219 223 223 220 218 219 217 213 210 203 195 195 198 199 196 193 190 189 192 198 203 201 197 197 200 200 200 199 198 199 200 198 197 196 188 188 204 224 242 263 275 260 275 293 293 292 295 300 302 299 297 302 307 307 304 300 298 298 299 301 304 303 301 299 296 294 294 294 293 292 292 291
215 214 213 215 218 219 217 216 215 212 209 205 201 202 203 200 195 191 186 185 190 197 200 199 198 199 203 208 208 200 193 193 193 192 192 191 188 192 200 209 234 254 267 279 286 281 271 276 288 295 299 298 298 302 304 302 302 304 303 301 300 300 301 300 300 301 299 297 297 296 294 292 292 294
212 210 206 207 213 216 214 212 211 209 205 205 205 203 201 199 195 191 186 185 190 193 194 196 198 200 207 213 209 199 193 191 188 186 187 187 186 193 199 201 221 240 252 265 270 260 255 265 277 284 291 295 296 298 300 300 304 306 304 303 302 300 300 301 303 304 302 300 300 299 295 293 294 296
212 208 204 206 210 211 209 208 207 205 203 205 204 201 199 198 195 191 189 189 190 187 187 191 195 200 209 213 205 197 193 187 181 181 182 183 186 193 201 210 225 236 244 252 255 252 250 255 264 275 283 287 289 292 295 298 301 303 304 305 304 301 301 301 301 302 304 305 305 304 302 301 302 301
219 213 209 208 207 206 205 202 199 201 204 205 203 200 198 197 194 192 190 190 190 185 182 187 195 203 210 209 200 193 187 178 176 177 178 182 189 197 207 219 229 236 241 246 249 246 244 246 257 272 278 281 283 285 289 293 295 298 301 301 302 302 300 299 300 303 305 306 306 307 306 304 303 301
221 218 212 206 202 201 199 195 193 197 200 200 199 199 198 197 195 193 189 188 187 184 182 187 197 206 207 201 192 185 178 173 174 177 179 185 193 203 216 225 233 239 240 239 240 241 239 241 252 265 273 277 279 281 285 289 291 294 296 296 298 301 301 300 302 303 305 307 307 306 304 302 301 299
219 219 213 207 202 199 196 192 191 193 193 193 193 195 197 198 196 193 190 188 185 183 183 190 200 204 200 190 181 177 176 176 177 179 184 191 200 215 228 233 239 244 239 234 235 235 235 243 252 260 265 271 276 280 283 285 285 287 290 292 295 299 301 304 304 304 309 312 309 305 304 303 301 298
213 210 203 197 195 192 188 185 184 185 187 188 189 191 194 197 196 192 189 186 183 182 186 194 199 196 189 183 180 180 180 180 181 184 189 197 208 224 232 232 239 247 244 236 234 230 232 243 250 251 254 262 271 278 281 281 279 280 285 290 295 299 301 303 306 310 314 313 309 306 304 303 302 300
204 193 184 181 181 181 180 178 177 179 182 183 184 187 190 191 192 190 185 181 179 180 185 192 193 186 182 182 183 183 183 184 187 190 194 199 209 219 224 229 239 250 251 246 242 238 238 243 247 250 255 259 263 268 273 277 277 277 283 293 296 298 302 305 307 312 315 313 309 307 305 304 304 302
193 182 175 174 177 178 176 175 174 174 176 177 178 181 183 185 188 188 184 181 178 177 182 188 188 184 183 184 183 183 184 186 190 193 197 204 210 213 221 232 241 246 246 247 249 247 243 246 252 257 260 263 261 255 252 257 269 277 283 294 299 298 302 307 308 311 314 311 308 307 306 305 306 304
183 178 175 176 179 179 177 175 173 173 175 177 177 177 177 181 185 185 183 182 177 173 177 185 187 187 187 183 182 185 187 188 192 195 200 210 216 217 224 235 241 240 238 241 246 247 245 250 260 267 271 275 272 259 243 236 246 273 286 292 299 300 301 306 308 310 311 310 309 309 308 307 308 307
181 179 179 180 179 178 177 176 175 176 177 176 174 171 170 175 181 182 182 179 175 172 177 184 188 189 188 184 184 188 190 192 199 202 204 212 222 223 227 235 240 240 241 243 244 242 242 248 259 273 283 284 289 287 251 217 216 258 292 295 299 301 302 305 307 307 309 311 312 311 309 307 307 307
182 183 183 181 180 178 176 175 174 174 174 170 166 166 166 170 176 179 177 174 172 174 181 186 189 189 188 186 187 191 192 196 206 213 214 219 228 230 230 232 233 233 236 238 234 231 236 244 249 261 278 283 285 299 288 221 216 247 279 293 298 299 300 303 304 306 310 312 311 310 309 306 305 305
186 188 186 183 180 177 174 174 173 171 169 165 164 165 167 168 172 175 173 172 173 178 183 188 189 189 189 189 189 192 194 198 211 224 226 226 231 234 233 232 231 229 228 228 227 226 231 237 240 245 261 274 275 286 302 290 269 267 277 288 291 292 295 300 304 309 313 312 311 311 308 303 301 302
187 190 187 182 178 174 171 170 168 164 162 161 162 165 166 167 169 171 172 173 177 180 183 187 190 190 190 191 191 193 197 204 217 228 229 226 228 231 232 232 232 228 224 224 226 225 225 229 236 240 246 261 274 283 293 294 290 286 284 280 275 274 283 297 305 312 315 314 313 311 307 303 301 303
184 186 182 176 171 166 161 159 158 156 157 161 165 167 167 167 168 171 173 175 178 180 182 187 189 188 188 189 190 194 203 213 222 227 225 221 222 224 227 230 229 225 224 225 225 226 226 227 226 225 236 259 275 280 280 280 279 278 277 273 265 261 271 290 304 311 312 314 315 313 310 310 309 309
176 176 172 165 160 157 156 156 158 158 161 165 169 170 169 169 170 173 176 177 177 177 180 185 187 187 188 189 191 199 211 219 223 223 219 218 221 222 222 226 226 222 224 227 226 225 224 220 218 228 244 260 267 268 268 269 272 278 286 290 284 273 272 288 303 305 305 309 313 312 312 313 313 311
171 166 162 159 156 155 157 158 158 159 161 165 168 169 169 171 174 176 175 176 177 179 182 186 186 186 188 189 195 208 217 216 215 217 216 217 220 218 214 218 224 224 223 224 226 223 219 216 225 240 249 251 252 256 262 269 279 287 292 294 292 282 278 290 302 306 307 307 306 306 308 313 314 313
163 157 155 155 153 153 154 155 156 158 161 165 167 168 169 173 177 176 173 173 178 182 186 188 186 186 191 196 203 213 215 209 209 214 215 215 218 216 211 215 222 224 222 221 225 226 225 224 228 235 242 244 247 255 264 271 280 285 287 291 296 293 287 291 301 310 311 308 304 299 298 301 301 303
151 148 148 147 145 147 152 156 158 160 163 166 168 170 172 174 175 174 173 176 181 185 188 189 188 189 195 200 203 207 209 209 211 213 211 212 217 219 218 216 216 218 221 225 227 227 226 226 229 235 244 251 253 257 265 272 278 284 288 291 292 292 294 298 305 310 311 311 310 306 299 296 295 297
143 142 142 142 145 150 157 161 161 162 165 168 171 173 175 174 172 173 177 180 183 185 189 190 190 191 193 193 195 200 205 209 211 210 210 213 215 218 223 222 217 217 221 224 227 227 225 226 234 240 246 252 254 257 265 270 274 277 281 283 285 294 303 307 308 311 313 314 314 311 306 305 306 309